Exeter, United Kingdom

1:26 AM BST on April 24, 2017 (GMT +0100)
Exeter

Weather History for EGTE - February, 2014

Change the Weather History Date:

Wednesday, February 12, 2014

  Actual Average Record
Temperature  
Mean Temperature 42 °F -  
Max Temperature 51 °F 48 °F 59 °F (1998)
Min Temperature 34 °F 37 °F 21 °F (2012)
Degree Days  
Heating Degree Days 22    
Moisture  
Dew Point 38 °F    
Average Humidity 79    
Maximum Humidity 100    
Minimum Humidity 49    
Precipitation  
Precipitation 0.63 in - - ()
Sea Level Pressure  
Sea Level Pressure 29.24 in    
Wind  
Wind Speed 19 mph ()    
Max Wind Speed 38 mph    
Max Gust Speed 56 mph    
Visibility 5.8 miles    
Events Rain    
Averages and records for this station are not official NWS values.
T = Trace of Precipitation, MM = Missing Value Source: Averaged Metar Reports

Daily Weather History Graph

Daily Weather History Graph

Search for Another Location

Airport or City:

Trip Planner

Search our weather history database for the weather conditions in past years. The results will help you decide how hot, cold, wet, or windy it might be!

Date:

Astronomy

Feb. 12, 2014 Rise Set
Actual Time 7:31 AM GMT 5:25 PM GMT
Civil Twilight 6:57 AM GMT 5:59 PM GMT
Nautical Twilight 6:18 AM GMT 6:37 PM GMT
Astronomical Twilight 5:40 AM GMT 7:15 PM GMT
Moon 3:20 PM GMT (2/12) 5:46 AM GMT (2/12)
Length of Visible Light 11h 01m
Length of Day
9h 53m
Waxing Gibbous, 94% of the Moon is Illuminated
Feb 12
Waxing Gibbous
Feb 14
Full
Feb 22
Last Quarter
Mar 1
New
Mar 8
First Quarter

Hourly Weather History & Observations

Time (GMT) Temp. Windchill Dew Point Humidity Pressure Visibility Wind Dir Wind Speed Gust Speed Precip Events Conditions
12:00 AM 39 °F - 34 °F 76%  in - Calm Calm - -  
12:20 AM 39.2 °F 32.5 °F 35.6 °F 87% 29.59 in 6.2 mi SW 10.4 mph - N/A   Scattered Clouds
12:50 AM 39.2 °F 31.6 °F 35.6 °F 87% 29.59 in 6.2 mi SW 12.7 mph - N/A   Mostly Cloudy
1:00 AM 40 °F - 35 °F 78%  in - Calm Calm - -  
1:20 AM 39.2 °F 32.5 °F 35.6 °F 87% 29.59 in 6.2 mi SW 10.4 mph - N/A Rain Rain Showers
1:50 AM 39.2 °F 31.6 °F 35.6 °F 87% 29.59 in 6.2 mi SSW 12.7 mph - N/A Rain Light Rain Showers
2:00 AM 39 °F - 36 °F 84%  in - Calm Calm - -  
3:00 AM 38 °F - 36 °F 87%  in - Calm Calm - -  
4:00 AM 40 °F - 37 °F 84%  in - Calm Calm - -  
5:00 AM 42 °F - 39 °F 84%  in - Calm Calm - -  
6:00 AM 43 °F - 40 °F 84%  in - Calm Calm - -  
6:20 AM 42.8 °F 37.0 °F 41.0 °F 93% 29.47 in 6.2 mi South 10.4 mph - N/A Rain Light Rain Showers
6:50 AM 44.6 °F 38.1 °F 41.0 °F 87% 29.44 in 6.2 mi South 13.8 mph - N/A   Mostly Cloudy
7:00 AM 44 °F - 41 °F 86%  in - Calm Calm - -  
7:20 AM 44.6 °F 36.6 °F 41.0 °F 87% 29.42 in 6.2 mi South 19.6 mph - N/A Rain Light Rain Showers
7:50 AM 44.6 °F 37.4 °F 42.8 °F 93% 29.36 in 6.2 mi South 16.1 mph - N/A   Scattered Clouds
8:00 AM 46 °F - 42 °F 79%  in - Calm Calm - -  
8:20 AM 46.4 °F 38.3 °F 41.0 °F 81% 29.36 in 6.2 mi South 23.0 mph - N/A   Scattered Clouds
8:50 AM 46.4 °F 37.7 °F 42.8 °F 87% 29.30 in 6.2 mi South 26.5 mph 38.0 mph N/A Rain Light Rain Showers
9:00 AM 47 °F - 43 °F 82%  in - Calm Calm - -  
9:20 AM 46.4 °F 37.4 °F 42.8 °F 87% 29.27 in 6.2 mi South 28.8 mph 40.3 mph N/A Rain Light Rain Showers
9:50 AM 46.4 °F 37.4 °F 42.8 °F 87% 29.24 in 4.3 mi South 28.8 mph 43.7 mph N/A Rain Rain
10:00 AM 47 °F - 43 °F 82%  in - Calm Calm - -  
10:20 AM 46.4 °F 37.2 °F 44.6 °F 93% 29.18 in 4.3 mi South 29.9 mph 41.4 mph N/A Rain Rain
10:50 AM 46.4 °F 36.7 °F 44.6 °F 93% 29.15 in 3.1 mi South 33.4 mph - N/A Rain Rain
11:00 AM 46 °F - 43 °F 86%  in - Calm Calm - -  
11:20 AM 46.4 °F 36.1 °F 44.6 °F 93% 29.12 in 3.1 mi SSW 38.0 mph 56.4 mph N/A Rain Rain
11:50 AM 44.6 °F 34.1 °F 44.6 °F 100% 29.06 in 3.1 mi South 34.5 mph 47.2 mph N/A Rain Rain
12:00 PM 46 °F - 43 °F 86%  in - Calm Calm - -  
12:20 PM 46.4 °F 36.4 °F 44.6 °F 93% 29.03 in 2.5 mi South 35.7 mph 48.3 mph N/A Rain Heavy Rain
12:50 PM 46.4 °F 37.7 °F 44.6 °F 93% 29.03 in 6.2 mi SW 26.5 mph 41.4 mph N/A   Scattered Clouds
1:00 PM 47 °F - 44 °F 83%  in - Calm Calm - -  
1:20 PM 50.0 °F - 42.8 °F 76% 29.03 in 6.2 mi SW 31.1 mph 46.0 mph N/A   Scattered Clouds
1:50 PM 50.0 °F - 39.2 °F 66% 29.06 in 6.2 mi WSW 32.2 mph 49.5 mph N/A   Scattered Clouds
2:00 PM 49 °F - 37 °F 52%  in - Calm Calm - -  
2:20 PM 50.0 °F - 37.4 °F 62% 29.06 in 6.2 mi WSW 28.8 mph 41.4 mph N/A   Scattered Clouds
2:50 PM 50.0 °F - 37.4 °F 62% 29.09 in 6.2 mi WSW 34.5 mph 51.8 mph N/A   Scattered Clouds
3:00 PM 49 °F - 36 °F 49%  in - Calm Calm - -  
3:20 PM 44.6 °F 36.4 °F 39.2 °F 81% 29.09 in 6.2 mi WSW 20.7 mph - N/A   Scattered Clouds
3:50 PM 48.2 °F - 37.4 °F 66% 29.09 in 6.2 mi SW 24.2 mph - N/A   Scattered Clouds
4:00 PM 47 °F - 37 °F 60%  in - Calm Calm - -  
4:20 PM 46.4 °F 39.0 °F 37.4 °F 71% 29.09 in 6.2 mi WSW 19.6 mph 34.5 mph N/A   Scattered Clouds
4:50 PM 46.4 °F 38.5 °F 37.4 °F 71% 29.12 in 6.2 mi WSW 21.9 mph 35.7 mph N/A   Scattered Clouds
5:00 PM 46 °F - 36 °F 57%  in - Calm Calm - -  
5:20 PM 46.4 °F 37.9 °F 35.6 °F 66% 29.12 in 6.2 mi WSW 25.3 mph 38.0 mph N/A   Scattered Clouds
5:50 PM 44.6 °F 34.6 °F 35.6 °F 71% 29.15 in 6.2 mi WSW 31.1 mph 50.6 mph N/A   Scattered Clouds
6:00 PM 43 °F - 34 °F 60%  in - Calm Calm - -  
6:20 PM 42.8 °F 34.3 °F 33.8 °F 70% 29.18 in 6.2 mi WSW 19.6 mph 31.1 mph N/A   Scattered Clouds
6:50 PM 42.8 °F 33.8 °F 35.6 °F 76% 29.18 in 6.2 mi WSW 21.9 mph - N/A Rain Rain Showers
7:00 PM 42 °F - 36 °F 72%  in - Calm Calm - -  
7:20 PM 41.0 °F 31.6 °F 35.6 °F 81% 29.21 in 6.2 mi WSW 20.7 mph 33.4 mph N/A   Partly Cloudy
7:50 PM 42.8 °F 34.0 °F 33.8 °F 70% 29.21 in 6.2 mi WSW 20.7 mph - N/A   Partly Cloudy
8:00 PM 42 °F - 32 °F 58%  in - Calm Calm - -  
8:20 PM 42.8 °F 34.3 °F 32.0 °F 66% 29.21 in 6.2 mi WSW 19.6 mph 31.1 mph N/A   Partly Cloudy
8:50 PM 41.0 °F 32.2 °F 35.6 °F 81% 29.24 in 6.2 mi West 18.4 mph 31.1 mph N/A   Scattered Clouds
9:00 PM 40 °F - 33 °F 69%  in - Calm Calm - -  
9:20 PM 39.2 °F 30.8 °F 33.8 °F 81% 29.24 in 6.2 mi SW 15.0 mph - N/A   Scattered Clouds
9:50 PM 39.2 °F 30.5 °F 35.6 °F 87% 29.24 in 6.2 mi WSW 16.1 mph 33.4 mph N/A Rain Light Rain Showers
10:00 PM 39 °F - 35 °F 78%  in - Calm Calm - -  
10:20 PM 39.2 °F 31.2 °F 33.8 °F 81% 29.27 in 6.2 mi SW 13.8 mph 28.8 mph N/A Rain Light Rain Showers
10:50 PM 39.2 °F 29.6 °F 35.6 °F 87% 29.27 in 6.2 mi WSW 19.6 mph 31.1 mph N/A Rain Light Rain Showers
11:00 PM 38 °F - 35 °F 83%  in - Calm Calm - -  
11:20 PM 39.2 °F 31.2 °F 33.8 °F 81% 29.27 in 6.2 mi WSW 13.8 mph - N/A   Partly Cloudy
11:50 PM 39.2 °F 32.5 °F 33.8 °F 81% 29.27 in 6.2 mi SW 10.4 mph - N/A   Partly Cloudy